Location: Unspecified
(0.0000°N, 0.0000°E)
Time: 15:40:52
(UTC+00:00)

CZ-3C DEB - Pass Details

Date: 20 February 2026
Orbit: 521 x 35552 km, 20.3° (Epoch: 6 July)

Event Time Altitude Azimuth Distance (km) Brightness Sun altitude
Rises 22:20:27 0° 257° (WSW) 6,303 ? -59.9°
Reaches altitude 10° 22:23:12 10° 252° (WSW) 6,077 ? -60.6°
Maximum altitude 03:09:53 62° 107° (ESE) 23,276 ? -44.9°
Drops below altitude 10° 05:01:11 10° 73° (ENE) 10,335 ? -17.8°
Sets 05:06:18 0° 72° (ENE) 10,052 ? -16.5°
